Flag for Austria Weather past 2 weeks in Steyr, Upper Austria, Austria

Now
51 °F

Partly sunny.


Feels Like: 51 °F
Forecast: 43 / 54 °F
Wind: No wind

Location: Kremsmuenster

Current Time: Apr 27, 2015 at 8:42:27 AM

Latest Report: Apr 27, 2015 at 8:00 AM


Visibility: 31 mi

Pressure: 29.63 "Hg

Humidity: 87%

Dew point: 47 °F

Location of SteyrLocation

Historic Weather in Steyr — Graph

°F

Steyr temperature yesterday

Maximum temperature yesterday: 70 °F (at 4:00 PM)
Minimum temperature yesterday: 55 °F (at 7:00 AM)
Average temperature yesterday: 62 °F

Past Weeks' High & Low Weather Summary

 TemperatureHumidityPressure
High74 °F (Apr 15, 5:00 PM)96% (Apr 24, 12:00 AM)30.46 "Hg (Apr 24, 12:00 AM)
Low35 °F (Apr 19, 6:00 AM)22% (Apr 16, 3:00 PM)29.64 "Hg (Apr 27, 6:00 AM)
Average55 °F61%30.11 "Hg
* Reported Apr 12 7:00 AM — Apr 27 7:00 AM, Steyr, Weather by CustomWeather, © 2015

Note: Actual official high and low records may vary slightly from our data, if they occured in-between our weather recording intervals... More about our weather records

Advertising

Steyr weather history for previous 24 hours

 ConditionsComfort  
Time TempWeatherWind HumidityBarometerVisibility
7:00 AM
Mon, Apr 27
48 °FPartly sunny.No wind92%29.64 "Hg25 mi
6:00 AM48 °FCool.No wind91%29.64 "HgN/A
5:00 AM49 °FCool.1 mph91%29.65 "HgN/A
4:00 AM50 °FCool.1 mph90%29.66 "HgN/A
3:00 AM52 °FCool.2 mph88%29.67 "HgN/A
2:00 AM52 °FCool.1 mph86%29.69 "HgN/A
1:00 AM54 °FCool.1 mph81%29.70 "HgN/A
12:00 AM56 °FCool.1 mph78%29.70 "HgN/A
11:00 PM
Sun, Apr 26
58 °FCool.2 mph73%29.71 "HgN/A
10:00 PM60 °FCool.3 mph68%29.72 "HgN/A
9:00 PM62 °FCool.3 mph64%29.71 "HgN/A
8:00 PM65 °FPartly sunny.5 mph56%29.71 "Hg25 mi
7:00 PM66 °FMild.3 mph53%29.72 "HgN/A
6:00 PM69 °FMild.2 mph49%29.72 "HgN/A
5:00 PM70 °FOvercast.3 mph48%29.73 "Hg31 mi
4:00 PM70 °FMild.2 mph48%29.75 "HgN/A
3:00 PM69 °FMild.2 mph51%29.77 "HgN/A
2:00 PM68 °FMild.2 mph55%29.80 "HgN/A
1:00 PM64 °FMild.2 mph56%29.83 "HgN/A
12:00 PM64 °FMild.3 mph61%29.85 "HgN/A
11:00 AM60 °FOvercast.2 mph65%29.88 "Hg28 mi
10:00 AM58 °FCool.3 mph70%29.89 "HgN/A
9:00 AM56 °FCool.2 mph78%29.90 "HgN/A
8:00 AM56 °FOvercast.2 mph81%29.90 "Hg22 mi
Weather by CustomWeather, © 2015

See weather overviewHow to use our weather pages